San Luis Valley Regional Bergman Field
KALS : now visible

Airfield :











YOU CAN JOIN US ON...

 
LOGIN :

Register | Disclaimer

   EN    FR    IT 

 









Legend :    VFR   Marginal VFR   IFR   Intensive IFR   Very Intensive IFR
Visi :
Ceiling :
>= 8 km
>= 3000ft
5 to 8 km
1000 to 3000 ft
1500m to 5 km
500 to 1000 ft
800 to 1500m
200 to 500 ft
< 800m
< 200 ft
Symbols :   Thunderstorms  Fog  Heavy snow  Heavy precipitations  Wind > 20 kt






- Airport Elevation : 7539 ft


KALS - San Luis Valley Regional Bergman Field

CURRENT METAR :
  • 031652Z AUTO VRB03KT 10SM CLR 24/03 A3036 RMK AO2 SLP176 T02390028

EXPIRED METARs :
  • 031552Z AUTO 33004KT 10SM CLR 22/03 A3037 RMK AO2 SLP182 T02220028
  • 031452Z AUTO 36004KT 10SM CLR 19/03 A3038 RMK AO2 SLP186 T01940028 51014

TAF KALS
Valid from the 03 at 12:00 until the 04 at 12:00 UTC


031143Z 0312/0412 VRB05KT P6SM FEW100 BKN200
FM031800 21010G20KT P6SM SCT100 BKN150
FM032100 20015G25KT P6SM VCTS SCT080 BKN100CB
FM040300 13007KT P6SM BKN120
KZDV FIR / North America



MET'MAP, your aeronautical weather chart ! - Copyright ORBIFLY December 2007 - Disclaimer

ORBIFLY MET'MAP TEAM :

Programming & Development : Alexandra Zaïnal
Concept & original design : Baudouin d'Aumeries
Assistance for programming : Marc-Olivier Méhu
Technical & hardware support : Manuel Goepfert

Contact : metmap@orbifly.com




SOURCES & CREDITS :

   NOAA       Earth
Advisory